This is the latest recevied weather packets stored in our database for station/object W1ERB-13. If no packets are shown the sender has not sent any weather packets the latest 10 day(s).
| Time | Temp. | Humidity | Pressure | Rain* | Wind** | Luminosity | Snow |
|---|---|---|---|---|---|---|---|
| 1777901035 | 16.67° C | 44% | 1011.9 hPa | 0 mm | - | 645 W/m² | - |
| 1777900733 | 15° C | 46% | 1012.1 hPa | 0 mm | - | 622 W/m² | - |
| 1777900429 | 15.56° C | 46% | 1012 hPa | 0 mm | - | 597 W/m² | - |
| 1777900127 | 15° C | 46% | 1012 hPa | 0 mm | - | 567 W/m² | - |
| 1777899823 | 14.44° C | 45% | 1012.3 hPa | 0 mm | - | 514 W/m² | - |
| 1777899520 | 14.44° C | 46% | 1012.3 hPa | 0 mm | - | 507 W/m² | - |
| 1777899218 | 14.44° C | 47% | 1012.2 hPa | 0 mm | - | 479 W/m² | - |
| 1777898915 | 13.89° C | 50% | 1012.5 hPa | 0 mm | - | 439 W/m² | - |
| 1777898612 | 13.33° C | 49% | 1012.4 hPa | 0 mm | - | 386 W/m² | - |
| 1777898309 | 12.78° C | 51% | 1012.3 hPa | 0 mm | - | 380 W/m² | - |
| 1777898006 | 12.78° C | 51% | 1012.6 hPa | 0 mm | - | 364 W/m² | - |
| 1777897703 | 12.22° C | 54% | 1012.5 hPa | 0 mm | - | 348 W/m² | - |
| 1777897400 | 11.67° C | 54% | 1012.7 hPa | 0 mm | - | 321 W/m² | - |
| 1777897095 | 11.67° C | 55% | 1012.6 hPa | 0 mm | - | 314 W/m² | - |
| 1777896792 | 11.67° C | 57% | 1012.7 hPa | 0 mm | - | 288 W/m² | - |
| 1777896489 | 11.11° C | 55% | 1012.5 hPa | 0 mm | - | 250 W/m² | - |
| 1777896186 | 10.56° C | 61% | 1012.8 hPa | 0 mm | - | 239 W/m² | - |
| 1777895884 | 10° C | 61% | 1012.7 hPa | 0 mm | - | 229 W/m² | - |
| 1777895581 | 9.44° C | 62% | 1012.6 hPa | 0 mm | - | 223 W/m² | - |
| 1777895279 | 9.44° C | 64% | 1012.5 hPa | 0 mm | - | 189 W/m² | - |
| 1777894976 | 8.89° C | 65% | 1012.5 hPa | 0 mm | - | 80 W/m² | - |
| 1777894674 | 8.33° C | 66% | 1012.6 hPa | 0 mm | - | 188 W/m² | - |
| 1777894370 | 8.33° C | 66% | 1012.8 hPa | 0 mm | - | 171 W/m² | - |
| 1777894067 | 7.78° C | 66% | 1012.7 hPa | 0 mm | - | 76 W/m² | - |
| 1777893758 | 8.33° C | 66% | 1012.7 hPa | 0 mm | - | 59 W/m² | - |
* Rain latest hour (hover to see other rain measurements)
** Current wind speed in m/s (hover to see current wind gust speed)